Location: Puerto Pe�asco
(31.3170°N, 113.5330°W)
Time: 09:56:59
(UTC-07:00)

Daily predictions for brighter satellites

Satellite Brightness Start Highest point End
(mag) Time Altitude Azimuth Time Altitude Azimuth Time Altitude Azimuth
Cosmos 2056 Rocket 3.6 18:37:27 10° NNW 18:42:53 74° ENE 18:48:15 10° SSE
Cosmos 1378 3.4 18:41:25 10° N 18:45:02 46° E 18:48:36 10° SSE
Atlas Centaur 2 3.6 18:43:17 10° W 18:51:35 57° SSW 18:59:39 10° SE
CZ-2C R/B 3.9 18:48:29 10° S 18:53:10 42° W 18:57:45 10° NNW
FREGAT/IRIS 3.8 18:51:11 10° SE 18:53:44 24° ENE 18:56:17 10° NNE
Abrixas 4.0 18:51:46 10° WSW 18:54:31 33° NW 18:57:18 10° NNE
Meteor 1-28 Rocket 3.1 18:56:43 10° NNE 19:00:25 67° ESE 19:04:06 10° S
COSMO-SKYMED 1 3.7 18:56:29 10° N 19:00:40 48° WNW 19:04:50 10° SSW
Milstar 3 4.2 18:54:00 10° W 19:03:07 77° S 19:18:56 15° E
Helios 1B rocket 3.0 18:59:25 10° NNE 19:03:13 36° E 19:07:01 10° SSE
Elektron 1 4.1 19:00:01 10° SSW 19:03:14 42° ESE 19:06:00 10° NE
Cosmos 1805 3.3 19:00:41 10° S 19:04:31 58° E 19:08:24 10° NNE
USA 215 3.3 18:58:14 10° NE 19:04:45 70° SE 19:11:15 10° SSW
GPS 2-04 Rocket1 2.6 19:05:01 10° W 19:08:26 63° NNW 19:11:14 15° ENE
IDEFIX/ARIANE 42P 4.5 19:03:59 10° SSW 19:08:40 34° W 19:13:24 10° NNW
Cosmos 2278 Rocket 4.3 19:04:58 10° NW 19:09:52 31° WSW 19:14:44 10° SSW
Cosmos 1953 2.2 19:08:27 10° S 19:12:26 77° E 19:16:24 10° N
SeaSat 1 4.0 19:14:24 16° ESE 19:14:24 16° ESE 19:16:56 10° SE
SAR-Lupe-1 3.9 19:12:17 10° SSE 19:15:48 83° E 19:19:23 10° N
Gbstr 26 Del rocket 3.0 19:12:52 10° SW 19:16:59 81° SE 19:21:59 10° NE
Meteor 1-29 3.3 19:15:02 10° NNE 19:18:22 42° E 19:21:40 10° S
Cosmos 1076 Rocket 3.5 19:14:10 10° N 19:18:31 89° E 19:22:52 10° S
Cosmos 2297 4.3 19:13:09 10° NNW 19:18:41 59° WSW 19:24:10 10° S
Cosmos 1766 Rocket 3.4 19:14:30 10° N 19:18:51 71° E 19:23:08 10° SSE
NOAA 12 4.0 19:15:01 10° SSE 19:20:15 78° ENE 19:25:32 10° N
ATLAS CENTAUR R/B 3.9 19:18:04 10° WNW 19:21:04 21° WSW 19:23:54 10° SSW
Cosmos-2242 3.0 19:17:25 10° S 19:21:46 87° E 19:26:10 10° N
Cosmos 1943 3.5 19:17:14 10° S 19:22:30 42° ESE 19:27:46 10° NE
Cosmos 2369 Rocket 3.5 19:22:29 10° NNE 19:26:27 19° ENE 19:27:09 19° ENE
Cosmos 1733 4.0 19:23:28 10° SSE 19:26:51 30° E 19:30:15 10° NNE
Cosmos 1603 4.2 19:23:04 10° SSW 19:28:44 65° WNW 19:34:28 10° NNE
Cosmos 1470 3.1 19:25:28 10° SSE 19:29:07 40° E 19:32:45 10° NNE
Cosmos 1634 Rocket 4.5 19:24:57 10° SSE 19:30:32 35° E 19:36:05 10° NNE
OAO 3 Rocket 3.4 19:28:08 10° WNW 19:32:49 59° N 19:35:09 28° ENE
SEDSat Delta rocket 4.0 19:27:16 10° W 19:33:54 87° S 19:37:58 26° E
BREEZE-M DEB (TANK) 3.3 19:32:33 10° WNW 19:35:12 48° SW 19:42:19 10° SE
Delta 168 4.0 19:32:10 10° WSW 19:36:20 44° S 19:39:10 26° ESE
Spot 1 4.2 19:33:42 10° SSE 19:38:30 88° ENE 19:43:03 10° NNW
Cosmos 1452 Rocket 3.6 19:33:57 10° NNW 19:39:12 80° WSW 19:44:26 10° S
SJ-6B 4.0 19:37:25 10° S 19:41:12 45° W 19:45:06 10° NNW
Cosmos 1674 3.2 19:38:02 10° N 19:41:20 38° ENE 19:41:20 38° ENE
Cosmos 1842 Rocket 3.3 19:42:06 10° S 19:46:23 75° E 19:50:43 10° N
ASTRO E2 2.9 19:42:26 10° W 19:46:26 63° SSW 19:47:22 47° SE
ASTEX 1 3.3 19:41:53 10° NNE 19:46:43 58° E 19:51:30 10° S
Cosmos 1500 Rocket 3.6 19:47:05 10° N 19:51:26 54° E 19:52:00 50° ESE
ISS -0.6 19:56:09 10° WNW 19:58:19 16° NW 20:00:05 12° N
Cosmos 1420 Rocket 3.9 19:53:57 10° NNW 19:59:17 84° ENE 20:02:05 29° SSE
ALOS 2.1 19:59:05 48° SE 20:00:17 69° ENE 20:04:56 10° N
Helios 1A 3.3 19:56:58 12° S 20:00:49 65° WSW 20:05:00 10° NNW
FengYun 1-2 T 4.2 19:55:57 10° SSE 20:01:28 87° WSW 20:06:59 10° NNW
BREEZE-M TANK 3.4 19:56:05 10° WNW 20:01:39 40° SW 20:02:34 32° S
CENTAUR R/B 2.7 19:57:29 10° SW 20:03:19 68° WNW 20:09:53 10° NNE
Spot 2 Rocket 4.2 20:03:06 10° S 20:08:00 52° W 20:12:54 10° NNW
Resurs 1-3 4.2 20:08:50 18° S 20:11:53 56° W 20:16:12 10° NNW
Resurs 01 Rocket 3.1 20:13:50 10° SSW 20:17:54 35° W 20:21:59 10° NNW
Cosmos 1627 Rocket 4.4 20:16:38 10° N 20:22:30 62° ENE 20:22:30 62° ENE
Meteosat 1 Rocket2 3.7 20:18:57 10° WSW 20:25:14 60° SSW 20:25:14 60° SSW
FENGYUN 3A 4.2 20:32:55 35° SSW 20:34:55 55° W 20:40:12 10° NNW
Atlas Centaur 2 4.4 20:34:14 10° W 20:40:50 25° SSW 20:43:30 21° S
SeaSat 1 4.2 20:54:19 25° SW 20:54:19 25° SW 20:56:25 10° SW
Cosmos 1943 Rocket 4.1 21:01:02 10° NNW 21:02:42 20° N 21:02:42 20° N
Cosmos 2369 Rocket 3.5 21:05:15 10° NNW 21:08:59 37° WNW 21:08:59 37° WNW
